Temperature
15 14 14 14 14 14 14 14 15 14 14 14 14 14 14 14 14 14 14 14 14 14 14 13 13 13 13 13 13 13 13 13 13 13 12 12 12 12 12 12 12 12 12
14 14 14 14 14 14 14 14 14 14 14 14 14 14 14 14 14 14 14 14 14 14 13 13 13 13 13 13 13 13 13 13 12 12 12 12 12 12 12 12 12 11 11
14 14 14 14 14 14 14 14 14 14 14 14 14 14 14 13 13 13 13 13 13 13 13 13 13 13 13 13 13 13 12 12 12 12 12 12 12 12 12 11 11 11 11
13 14 14 14 14 14 14 14 14 14 14 14 13 13 13 13 13 13 13 13 13 13 13 13 13 13 13 13 12 12 12 12 12 12 12 12 12 12 11 11 11 11 11
13 13 13 13 13 13 14 14 14 13 13 13 13 13 13 13 13 13 13 13 13 13 13 12 12 12 12 12 12 12 12 12 12 12 12 12 12 11 11 11 11 11 11
12 13 13 13 13 13 13 13 13 13 13 13 13 13 13 13 13 13 13 12 12 12 12 12 12 12 12 12 12 12 12 12 11 11 11 11 11 11 11 11 11 11 11
12 12 12 13 13 13 13 13 13 13 12 12 12 12 12 12 12 12 12 12 12 12 12 12 12 12 12 12 11 11 11 11 11 11 11 11 11 11 11 11 10 10 10
12 12 12 12 12 12 12 12 12 12 12 12 12 11 11 11 12 12 12 12 12 12 12 12 11 11 11 11 11 11 11 11 11 11 11 11 11 10 10 10 10 10 10
11 11 11 11 12 12 12 12 12 12 12 11 11 11 11 11 11 11 11 11 11 11 11 11 11 11 11 11 11 11 11 11 10 10 10 10 10 10 10 10 10 10 10
11 11 11 11 11 11 11 11 11 11 11 11 11 10 10 10 10 10 11 11 11 11 11 11 11 11 11 10 10 10 10 10 10 10 9 9 9 9 9 9 9 9 9
10 10 10 10 10 10 10 11 11 11 11 10 10 10 10 10 10 9 9 10 10 11 10 10 10 10 10 10 10 10 10 10 9 9 9 9 9 8 8 8 8 8 8
9 9 9 9 10 10 10 10 10 10 10 10 10 10 9 9 9 9 9 9 9 10 10 10 10 10 10 9 9 9 9 9 9 9 9 8 8 8 8 8 8 8 8
8 9 9 9 9 9 9 9 9 9 9 9 9 9 9 9 9 8 8 8 8 9 9 9 9 9 9 9 9 8 9 8 8 8 8 8 8 8 7 7 7 7 7
8 8 8 8 9 9 9 9 9 9 9 9 9 9 8 8 8 8 7 7 7 7 8 8 8 8 8 8 8 8 8 8 8 7 7 7 7 7 7 7 7 7 7
7 8 8 8 8 8 8 8 8 8 8 8 8 8 8 8 7 7 7 7 6 6 6 7 7 8 7 7 7 7 7 7 7 7 7 7 7 6 6 6 6 6 6
7 7 7 7 8 8 8 7 7 7 7 8 7 7 7 7 7 6 6 6 6 5 5 6 6 7 7 7 7 7 7 7 7 7 6 6 6 6 6 6 6 6 6
6 7 7 7 7 7 7 7 7 7 7 7 7 6 6 6 6 6 6 5 5 5 5 5 5 6 6 6 6 6 6 6 6 6 6 6 6 6 6 5 5 5 5
6 6 6 6 6 6 6 6 6 6 6 6 6 6 6 6 5 5 5 5 5 4 4 4 5 5 5 5 5 5 5 5 5 5 5 5 5 5 5 5 5 5 5
6 6 6 6 6 6 6 6 6 5 5 5 5 5 5 5 5 5 5 4 4 4 4 3 4 4 4 4 4 4 4 4 5 5 5 5 5 5 5 5 5 5 4
5 5 5 5 5 5 5 5 5 5 5 5 5 5 5 4 4 4 4 4 3 3 3 3 3 3 3 3 3 3 3 4 4 4 4 4 4 4 4 4 4 4 4
5 5 5 5 5 5 5 4 4 4 4 4 4 4 4 4 4 3 3 3 3 3 2 2 2 2 2 2 2 2 2 3 3 3 3 3 4 4 4 4 4 4 4
4 4 4 4 4 4 4 4 4 3 3 3 3 3 3 3 3 3 3 2 2 2 2 1 2 2 2 2 2 2 1 1 2 2 2 3 3 3 3 3 3 3 3
4 4 4 4 4 3 3 3 3 3 3 3 3 3 3 3 2 2 2 2 2 2 1 1 1 1 1 1 1 1 1 1 1 1 1 2 2 2 2 3 3 3 3
3 3 3 3 3 3 3 3 3 2 2 2 2 2 2 2 2 2 2 2 1 1 1 1 1 1 1 0 0 0 0 0 1 1 1 1 1 1 2 2 2 2 2
3 3 2 2 2 2 2 2 2 2 2 2 1 1 1 1 1 1 1 1 1 1 1 0 0 0 0 0 0 -0 -0 -1 -0 0 0 -0 0 0 1 1 1 2 2
2 2 2 2 2 2 2 1 1 1 1 1 1 1 1 1 1 0 0 0 -0 -0 -0 -0 -0 0 0 0 -0 -0 -1 -1 -1 -1 -1 -1 -1 -1 -0 0 1 1 1
Wind_Speed
5 5 5 7 8 9 8 7 7 7 7 7 7 7 6 7 8 8 8 11 12 11 10 9 9 9 9 8 7 7 6 6 6 6 6 6 6 6 7 7 7 6 7
6 5 5 6 7 9 9 8 8 7 6 6 6 7 7 8 8 8 9 10 12 12 11 10 9 9 9 9 8 9 8 8 8 7 8 8 8 7 8 8 8 8 8
7 6 6 6 7 9 9 7 6 6 5 5 6 6 6 7 7 8 9 9 10 11 11 11 10 9 9 9 9 9 9 9 9 9 9 9 9 9 8 8 8 8 8
7 6 5 6 7 8 7 6 6 6 5 5 4 4 4 5 6 7 7 8 8 9 10 11 11 10 10 9 9 9 8 8 9 9 9 10 10 9 9 9 9 9 9
6 5 5 5 6 5 5 6 6 5 5 5 5 4 3 4 4 5 5 7 8 9 9 10 11 11 10 9 9 9 9 9 9 9 9 10 10 10 10 11 11 11 10
5 5 4 4 5 5 5 5 6 5 4 4 4 3 3 3 3 4 5 5 6 8 8 8 8 8 9 9 9 10 10 10 10 10 10 10 11 11 11 11 11 12 11
4 4 4 4 5 5 5 6 4 5 4 3 2 1 2 3 4 4 4 4 4 6 7 7 7 6 7 9 10 10 11 11 11 11 11 11 11 11 11 12 12 12 12
3 3 4 4 4 5 5 5 4 3 3 3 3 2 2 2 3 4 4 4 4 3 4 6 6 6 6 7 8 10 11 12 13 13 13 12 13 13 13 13 13 13 13
2 2 3 4 4 5 5 5 5 5 4 3 3 3 3 4 2 2 3 3 3 3 3 4 5 7 8 7 8 9 12 13 14 15 15 14 14 14 15 15 15 15 14
1 1 1 2 3 3 4 4 5 4 4 4 3 2 2 2 2 2 2 2 3 3 4 4 5 7 8 8 9 10 11 13 15 16 16 16 16 16 16 16 16 16 15
1 0 0 1 2 3 3 3 4 4 4 4 3 2 2 1 1 2 3 3 3 4 4 5 4 5 7 7 8 9 11 13 15 16 17 18 18 18 18 18 18 17 16
1 0 0 1 2 2 3 3 3 4 3 3 3 3 2 2 2 2 3 3 4 4 5 5 4 4 6 7 9 11 13 15 16 17 18 18 18 18 17 18 18 18 17
1 1 0 1 2 2 3 3 3 3 3 3 3 3 3 2 2 2 2 3 3 3 3 4 4 5 6 7 9 12 13 15 17 18 19 19 18 17 18 18 18 18 17
1 1 1 1 1 1 2 2 2 2 2 3 3 3 2 2 2 2 3 3 3 3 3 5 3 4 4 6 10 12 11 14 16 17 18 19 18 17 17 18 18 17 17
1 1 1 1 0 1 1 1 1 2 2 2 2 3 3 3 2 3 3 3 4 5 5 4 3 3 5 7 10 9 10 14 15 16 17 17 17 17 17 17 18 17 17
1 0 1 1 1 1 1 1 0 1 1 1 1 2 3 2 2 3 3 3 4 5 5 4 4 4 5 7 10 10 12 14 15 15 16 16 16 17 17 18 18 17 16
1 1 1 1 1 1 1 1 1 1 1 1 2 2 3 3 3 3 3 3 4 4 7 6 4 4 5 6 7 9 10 10 11 15 16 16 17 17 17 18 17 17 16
1 1 1 1 1 1 1 1 1 1 2 3 3 3 4 4 4 4 4 4 4 5 6 8 5 4 6 6 7 7 7 9 9 13 15 15 16 16 16 16 16 16 15
1 1 1 1 1 0 0 1 1 1 2 3 3 4 4 4 5 4 4 5 5 5 5 7 7 5 5 5 6 6 6 6 8 11 13 14 15 15 15 15 16 16 15
1 1 1 1 0 0 0 1 1 1 2 2 3 3 3 4 5 4 4 5 5 5 5 6 6 5 4 4 4 5 7 6 7 8 10 11 12 14 14 14 15 15 15
1 1 1 1 1 1 1 0 1 1 2 2 2 3 3 4 4 4 4 4 4 4 5 5 6 5 5 4 5 5 8 7 7 5 5 6 7 7 9 12 13 13 13
1 1 1 1 1 1 2 2 1 1 2 2 3 3 3 4 5 6 7 6 5 5 6 6 6 7 7 7 6 6 7 7 7 3 5 8 5 7 7 8 12 13 13
0 0 0 0 1 2 3 2 2 1 2 2 3 3 3 4 5 4 6 7 7 9 9 7 8 8 8 7 7 8 7 8 9 6 6 8 6 8 7 10 13 13 13
0 0 1 1 1 2 3 3 3 1 2 3 3 3 3 4 4 4 3 4 4 5 7 6 6 7 7 7 7 8 8 8 7 5 4 7 6 7 7 7 12 13 13
1 1 1 1 1 3 4 4 3 1 1 2 2 2 3 3 6 6 4 4 5 5 7 8 9 9 10 10 8 5 5 6 7 6 3 4 5 6 7 7 8 11 12
1 1 1 1 1 3 4 4 3 0 1 2 2 3 4 5 7 7 4 4 5 6 6 6 7 8 7 7 8 5 4 6 6 4 2 2 4 4 4 4 4 6 7
Wind_Direction
197 192 190 189 188 185 183 184 188 192 199 207 214 214 215 215 213 211 214 212 210 212 214 216 222 228 235 239 243 249 253 254 258 262 270 277 281 286 293 292 291 286 286
197 192 192 192 192 188 186 188 192 196 203 207 215 216 214 215 214 210 211 212 213 214 217 221 229 235 239 245 248 252 256 258 259 264 269 272 273 279 285 287 282 282 280
201 194 192 194 196 192 188 188 192 195 202 211 218 217 210 210 207 208 207 207 212 218 221 225 231 237 242 246 252 258 259 263 266 269 273 273 273 277 281 284 279 281 280
204 193 195 197 195 191 189 192 192 195 203 206 212 216 211 208 208 208 208 209 211 217 223 227 234 240 245 249 255 262 265 266 270 274 275 275 274 275 278 282 280 277 278
214 197 197 200 193 191 196 198 196 193 198 203 208 213 213 211 215 211 211 212 213 214 218 227 235 241 247 252 257 265 269 270 274 277 278 276 275 276 276 279 279 276 274
217 198 196 199 189 189 199 203 199 194 194 196 204 215 222 220 215 215 219 217 216 217 218 220 226 240 247 252 258 267 273 274 275 278 281 282 279 275 275 278 280 276 272
227 197 196 193 188 192 200 199 198 189 195 172 169 236 268 240 226 223 216 213 216 220 218 222 223 231 247 254 258 267 272 275 274 276 277 279 278 276 276 278 279 277 272
238 211 192 193 193 192 196 195 187 189 192 172 164 166 248 274 254 228 219 213 220 215 218 228 228 230 240 246 257 262 267 273 275 276 276 275 275 276 275 274 277 278 273
253 218 196 185 191 193 197 198 189 187 196 193 173 168 187 224 253 257 228 214 216 223 232 234 237 242 242 242 248 256 262 267 272 274 275 274 274 275 275 276 274 275 273
277 224 190 180 181 191 193 197 196 192 186 196 206 217 203 166 188 248 267 232 228 235 241 253 242 243 244 247 253 262 268 269 272 274 274 274 275 273 274 274 276 274 270
313 98 193 179 185 191 191 187 189 188 191 194 196 201 216 231 190 203 246 257 262 244 241 245 241 242 245 249 251 263 271 271 274 276 276 275 276 275 273 274 272 271 270
320 45 175 212 197 189 190 190 187 187 196 196 199 198 193 196 205 210 236 252 260 257 254 243 236 239 251 250 257 269 269 269 272 274 275 276 277 278 277 276 275 271 270
290 284 220 211 215 188 182 181 180 187 188 189 203 208 208 223 204 203 237 256 261 268 261 245 235 242 252 256 267 274 270 269 270 272 273 276 278 279 278 275 274 275 271
256 255 192 185 173 182 182 170 176 191 178 185 195 201 211 233 234 220 214 229 264 259 252 257 259 241 263 273 277 278 274 273 273 273 273 275 276 277 277 275 273 273 271
288 247 178 150 163 144 145 134 180 204 180 185 201 211 223 235 240 242 235 224 229 255 257 253 253 265 282 279 280 279 276 277 276 274 274 275 276 277 274 272 270 269 268
336 42 92 103 90 84 92 117 190 214 192 206 213 221 229 238 244 242 241 243 235 242 260 252 255 281 282 289 284 280 274 278 275 274 273 273 276 277 273 271 267 266 264
7 27 59 76 79 90 110 134 204 195 202 223 229 230 242 241 239 244 241 242 245 245 263 274 266 278 277 275 285 277 275 272 272 274 274 273 274 274 273 271 267 265 262
27 35 57 81 93 101 134 170 214 212 213 230 237 236 245 247 242 244 241 242 244 242 256 276 283 277 272 274 274 277 286 281 275 278 276 277 276 274 272 272 270 264 259
33 41 62 77 82 102 153 205 223 231 233 236 237 237 246 246 251 253 249 249 248 255 250 269 278 275 276 284 288 288 287 281 285 283 280 277 276 278 279 275 271 266 262
40 31 39 49 339 285 241 245 239 252 254 254 251 247 246 245 248 251 258 256 259 260 260 267 277 284 284 289 285 291 295 288 290 291 281 280 281 281 279 279 274 268 261
23 36 43 24 354 349 329 288 269 277 267 271 274 268 264 264 263 261 268 266 264 267 272 274 278 283 283 292 286 286 287 295 287 278 281 278 277 273 270 276 275 271 267
15 43 45 16 343 336 335 323 330 281 262 262 280 289 283 275 278 281 283 283 278 274 275 275 282 283 283 281 289 290 290 298 293 273 291 289 276 271 270 263 273 274 270
17 25 352 346 317 313 324 330 332 309 263 258 262 272 289 294 291 279 286 292 289 285 280 277 278 279 284 285 283 284 282 283 282 285 291 285 281 270 272 270 276 273 271
335 285 321 329 316 314 320 318 322 314 264 265 265 263 269 286 296 296 291 293 286 287 288 284 276 283 287 288 280 279 278 281 286 277 257 274 283 280 284 275 274 270 270
317 311 331 318 308 309 324 327 325 276 278 289 293 299 297 288 306 311 306 293 297 301 310 305 300 298 299 301 301 299 298 297 295 290 264 260 280 290 281 272 270 271 273
261 284 307 309 307 311 327 333 338 320 322 319 325 329 322 317 318 320 314 298 297 301 306 309 310 311 307 304 307 296 284 289 296 286 257 268 283 300 292 269 265 270 272
Height
1516 1517 1519 1520 1522 1524 1525 1527 1528 1530 1531 1532 1533 1534 1535 1536 1537 1537 1538 1538 1538 1538 1538 1538 1538 1538 1537 1537 1536 1536 1535 1534 1534 1533 1531 1530 1529 1528 1526 1525 1523 1522 1520
1512 1514 1515 1517 1519 1520 1522 1524 1525 1527 1528 1529 1530 1531 1532 1533 1534 1535 1535 1536 1536 1536 1536 1536 1536 1536 1535 1535 1534 1534 1533 1532 1531 1530 1529 1528 1527 1525 1524 1522 1520 1519 1518
1509 1510 1512 1513 1515 1517 1519 1520 1522 1523 1525 1526 1527 1528 1529 1530 1531 1532 1533 1533 1533 1533 1533 1533 1533 1533 1533 1532 1532 1531 1530 1530 1529 1528 1526 1525 1524 1523 1521 1519 1518 1516 1515
1505 1506 1508 1509 1511 1513 1515 1516 1518 1519 1521 1522 1523 1525 1526 1527 1528 1529 1530 1530 1530 1530 1530 1530 1530 1530 1530 1529 1529 1528 1527 1526 1526 1525 1523 1522 1521 1519 1518 1516 1515 1513 1511
1500 1502 1503 1505 1507 1509 1511 1512 1514 1515 1516 1518 1520 1521 1522 1523 1524 1525 1526 1526 1526 1526 1526 1527 1527 1526 1526 1526 1525 1524 1524 1523 1522 1521 1520 1519 1517 1516 1514 1513 1511 1510 1508
1496 1497 1498 1500 1502 1504 1506 1508 1510 1511 1512 1514 1516 1517 1518 1519 1520 1521 1521 1522 1522 1522 1523 1523 1523 1522 1522 1522 1521 1520 1520 1519 1518 1517 1516 1515 1513 1512 1511 1509 1507 1506 1505
1491 1493 1494 1496 1498 1500 1502 1504 1505 1507 1508 1510 1512 1513 1514 1515 1515 1516 1517 1517 1517 1518 1518 1518 1518 1518 1518 1517 1517 1516 1515 1514 1513 1512 1511 1510 1509 1507 1506 1504 1503 1502 1501
1486 1488 1489 1491 1493 1495 1497 1499 1501 1502 1503 1505 1507 1508 1509 1511 1510 1511 1512 1512 1513 1513 1513 1513 1513 1513 1513 1512 1512 1511 1510 1509 1508 1507 1506 1505 1503 1502 1501 1500 1498 1497 1496
1482 1483 1485 1486 1488 1490 1492 1494 1495 1497 1499 1501 1502 1504 1505 1504 1504 1506 1506 1507 1508 1508 1508 1508 1508 1508 1508 1507 1506 1506 1505 1504 1503 1501 1500 1499 1498 1496 1495 1494 1493 1492 1491
1478 1479 1480 1482 1484 1486 1487 1489 1491 1492 1494 1496 1497 1499 1500 1500 1501 1500 1501 1502 1502 1502 1503 1503 1503 1502 1502 1501 1501 1500 1499 1498 1497 1496 1494 1493 1492 1491 1489 1488 1487 1486 1485
1473 1475 1476 1478 1480 1481 1483 1485 1486 1488 1490 1491 1492 1493 1495 1495 1496 1496 1495 1495 1496 1497 1497 1497 1497 1496 1496 1495 1494 1494 1493 1492 1491 1490 1488 1487 1486 1484 1483 1482 1481 1479 1478
1470 1471 1473 1474 1476 1477 1479 1480 1482 1484 1485 1487 1488 1489 1490 1490 1490 1491 1490 1490 1490 1490 1491 1491 1490 1490 1489 1489 1488 1487 1487 1486 1485 1483 1482 1481 1479 1478 1476 1475 1474 1473 1471
1466 1468 1469 1471 1472 1473 1474 1476 1478 1479 1481 1482 1483 1484 1485 1486 1486 1487 1487 1486 1485 1484 1484 1484 1484 1484 1483 1482 1481 1481 1480 1479 1478 1476 1475 1474 1472 1471 1469 1468 1466 1465 1464
1463 1465 1466 1467 1468 1469 1470 1472 1474 1475 1476 1477 1478 1479 1480 1481 1481 1481 1482 1482 1480 1479 1478 1478 1478 1477 1477 1476 1475 1474 1473 1472 1471 1469 1468 1467 1465 1463 1462 1460 1459 1457 1456
1461 1462 1462 1463 1465 1466 1467 1468 1470 1471 1471 1472 1473 1474 1475 1475 1476 1476 1477 1477 1477 1474 1472 1471 1471 1471 1470 1469 1468 1467 1466 1465 1463 1462 1461 1459 1458 1456 1455 1453 1451 1450 1449
1458 1459 1459 1460 1461 1462 1463 1465 1466 1466 1467 1467 1468 1469 1469 1470 1470 1471 1471 1471 1471 1470 1467 1466 1465 1465 1464 1463 1462 1461 1459 1458 1456 1455 1453 1452 1450 1449 1447 1445 1444 1443 1441
1455 1456 1457 1457 1458 1459 1460 1461 1462 1462 1463 1463 1464 1464 1464 1464 1465 1465 1465 1465 1464 1464 1462 1459 1460 1459 1458 1456 1455 1454 1452 1450 1448 1447 1446 1444 1443 1441 1440 1438 1436 1435 1433
1453 1454 1454 1455 1455 1456 1456 1457 1458 1458 1458 1459 1459 1459 1459 1459 1459 1459 1459 1459 1458 1458 1456 1453 1452 1452 1451 1450 1448 1446 1444 1443 1441 1440 1438 1437 1435 1434 1432 1430 1428 1427 1426
1451 1452 1452 1452 1453 1453 1453 1454 1454 1454 1454 1454 1454 1454 1454 1454 1453 1453 1453 1453 1452 1451 1450 1448 1446 1446 1444 1443 1441 1439 1437 1435 1434 1432 1431 1429 1428 1426 1424 1422 1421 1419 1418
1449 1450 1450 1450 1451 1451 1450 1451 1450 1450 1450 1449 1450 1449 1449 1449 1448 1448 1447 1446 1446 1445 1444 1442 1440 1439 1437 1436 1435 1432 1429 1428 1426 1425 1423 1421 1420 1418 1417 1415 1413 1411 1409
1448 1448 1448 1448 1448 1448 1448 1447 1447 1446 1446 1445 1445 1445 1445 1444 1443 1442 1442 1441 1440 1439 1438 1436 1434 1432 1431 1430 1428 1426 1424 1421 1419 1418 1415 1414 1412 1410 1409 1407 1406 1404 1402
1446 1446 1446 1446 1446 1445 1445 1444 1443 1443 1442 1441 1441 1441 1440 1439 1439 1438 1437 1436 1436 1434 1432 1431 1428 1427 1425 1424 1423 1421 1419 1416 1412 1411 1409 1406 1406 1403 1402 1401 1399 1397 1395
1445 1444 1444 1444 1443 1443 1442 1441 1440 1439 1438 1437 1437 1436 1435 1435 1434 1432 1431 1431 1430 1429 1428 1427 1423 1421 1420 1419 1417 1415 1413 1411 1408 1406 1404 1399 1399 1397 1396 1394 1393 1391 1390
1443 1442 1442 1441 1440 1440 1439 1438 1437 1436 1434 1433 1433 1432 1431 1430 1429 1428 1426 1425 1424 1423 1422 1420 1418 1416 1415 1413 1412 1410 1407 1405 1402 1401 1399 1395 1392 1390 1389 1387 1386 1385 1384
1441 1440 1440 1439 1438 1437 1436 1435 1434 1432 1431 1430 1429 1428 1427 1426 1425 1424 1422 1420 1419 1417 1416 1415 1413 1411 1410 1408 1406 1404 1401 1399 1395 1393 1393 1390 1386 1384 1382 1380 1380 1379 1378
1439 1438 1437 1436 1435 1434 1433 1432 1431 1429 1428 1427 1426 1425 1424 1422 1421 1419 1418 1416 1413 1411 1410 1408 1407 1405 1404 1402 1401 1399 1397 1394 1391 1388 1386 1385 1382 1380 1376 1374 1374 1373 1371